Stations météo

Publicité
Langres, France (7283): Température de l'air & dewpoint: 20.05.2019 21:00:00 - 26.05.2019 21:00:00 (CEST)Langres, France (7283): Température de l'air 5cm: 20.05.2019 21:00:00 - 26.05.2019 21:00:00 (CEST)Langres, France (7283): Vitesse du vent & gusts: 20.05.2019 21:00:00 - 26.05.2019 21:00:00 (CEST)Langres, France (7283): Direction du vent: 20.05.2019 21:00:00 - 26.05.2019 21:00:00 (CEST)Langres, France (7283): reduced air pressure: 20.05.2019 21:00:00 - 26.05.2019 21:00:00 (CEST)Langres, France (7283): visibility: 20.05.2019 21:00:00 - 26.05.2019 21:00:00 (CEST)Langres, France (7283): Ensoleillement: 20.05.2019 21:00:00 - 26.05.2019 21:00:00 (CEST)Langres, France (7283): Quantités de précipitations: 20.05.2019 21:00:00 - 26.05.2019 21:00:00 (CEST)
Date & Time tt [°C] td [°C] tt 5cm [°C] ff [km/h] ff [knt] fx [km/h] fx [knt] dd ppp [hPa] vv [km] sd [min] rr [mm]
26.05.2019 21:00:00 - - - - - - - - - - - -
26.05.2019 20:00:00 18,5 8,5 18,2 8 4 19 10 WNW 1014,2 20 28 0,0
26.05.2019 19:00:00 19,8 7,8 21,2 11 6 20 11 WSW 1014,0 20 42 0,0
26.05.2019 18:00:00 20,3 7,0 21,1 4 2 16 9 W 1014,3 20 21 0,0
26.05.2019 17:00:00 19,4 7,2 21,8 8 4 21 11 NNW 1015,0 20 40 0,0
26.05.2019 16:00:00 20,1 8,1 22,3 8 5 24 13 W 1015,2 20 49 0,0
26.05.2019 15:00:00 20,5 5,3 27,0 8 5 19 10 NW 1015,6 20 60 0,0
26.05.2019 14:00:00 18,8 5,9 20,2 9 5 22 12 NW 1016,2 14 45 0,0
26.05.2019 13:00:00 18,3 8,0 22,7 11 6 28 15 WNW 1016,9 20 53 0,0
26.05.2019 12:00:00 17,5 8,6 24,2 8 4 17 9 WNW 1017,3 20 60 0,0
26.05.2019 11:00:00 16,7 8,6 20,8 7 4 19 10 NNW 1017,8 20 56 0,0
26.05.2019 10:00:00 15,3 9,4 19,3 9 5 16 9 NW 1018,3 20 60 0,0
26.05.2019 09:00:00 14,3 9,1 16,1 5 3 11 6 NE 1018,3 20 60 0,0
26.05.2019 08:00:00 11,9 8,2 13,0 6 3 12 6 NW 1018,7 20 60 0,0
26.05.2019 07:00:00 10,2 7,8 6,0 3 2 13 7 WNW 1018,8 20 45 0,0
26.05.2019 06:00:00 8,3 6,6 4,6 3 1 13 7 WNW 1019,0 20 0 0,0
26.05.2019 05:00:00 8,7 7,1 7,5 6 4 16 9 WNW 1018,9 20 0 0,0
26.05.2019 04:00:00 9,2 7,3 8,1 10 5 21 11 WNW 1018,9 20 0 0,0
26.05.2019 03:00:00 9,6 7,2 8,0 8 5 16 9 WNW 1018,9 20 0 0,0
26.05.2019 02:00:00 9,8 7,4 8,2 5 3 13 7 WNW 1019,2 20 0 0,0
26.05.2019 01:00:00 10,5 7,9 9,3 8 4 15 8 WNW 1019,4 20 0 0,0
26.05.2019 00:00:00 10,9 8,8 9,6 8 4 16 9 WNW 1019,3 20 0 0,0
25.05.2019 23:00:00 11,3 8,7 9,9 6 4 18 10 WNW 1019,1 20 0 0,0
25.05.2019 22:00:00 12,0 8,3 10,8 7 4 17 9 NW 1018,9 20 0 0,0
25.05.2019 21:00:00 13,5 7,9 13,1 6 4 16 9 NW 1018,2 20 30 0,0
25.05.2019 20:00:00 14,0 8,2 14,1 9 5 28 15 NW 1017,7 20 0 0,0
25.05.2019 19:00:00 14,6 9,0 15,7 15 8 46 25 NNW 1017,4 20 0 0,0
25.05.2019 18:00:00 17,4 8,0 18,2 10 5 27 15 NNW 1016,4 20 0 0,0
25.05.2019 17:00:00 18,9 5,3 21,0 12 6 31 17 N 1015,8 20 37 0,0
25.05.2019 16:00:00 19,9 6,6 22,3 14 7 30 16 NW 1015,5 20 41 0,0
25.05.2019 15:00:00 19,9 5,5 22,9 11 6 30 16 NNW 1015,7 20 55 0,0
25.05.2019 14:00:00 19,9 8,9 23,6 10 5 31 17 NNW 1015,9 20 60 0,0
25.05.2019 13:00:00 18,4 8,6 21,6 12 7 29 16 NNW 1016,5 20 42 0,0
25.05.2019 12:00:00 18,0 9,6 20,5 10 6 22 12 NW 1016,7 20 13 0,0
25.05.2019 11:00:00 17,2 9,9 21,6 9 5 22 12 NW 1016,6 20 49 0,0
25.05.2019 10:00:00 16,0 9,0 21,0 9 5 19 11 NNW 1016,5 20 60 0,0
25.05.2019 09:00:00 15,0 8,9 18,5 8 4 16 9 NW 1016,3 20 60 0,0
25.05.2019 08:00:00 14,9 8,1 14,2 5 3 13 7 N 1015,8 20 60 0,0
25.05.2019 07:00:00 12,3 8,4 9,7 6 3 17 9 NNW 1016,1 19 39 0,0
25.05.2019 06:00:00 11,3 8,3 9,8 8 4 18 10 NW 1016,2 20 0 0,0
25.05.2019 05:00:00 12,0 8,5 10,7 10 5 19 11 NW 1015,8 20 0 0,0
25.05.2019 04:00:00 12,7 8,8 10,8 8 4 16 9 NW 1015,7 20 0 0,0
25.05.2019 03:00:00 13,2 8,7 11,2 7 4 16 9 NW 1015,5 20 0 0,0
25.05.2019 02:00:00 13,1 9,2 11,3 6 3 14 8 NW 1015,7 20 0 0,0
25.05.2019 01:00:00 13,8 9,6 11,8 5 3 14 8 NW 1015,9 20 0 0,0
25.05.2019 00:00:00 13,9 9,3 11,9 5 3 15 8 WNW 1015,6 20 0 0,0
24.05.2019 23:00:00 14,7 8,9 13,1 10 6 18 10 WNW 1015,6 20 0 0,0
24.05.2019 22:00:00 15,9 6,9 13,5 8 4 15 8 WNW 1015,0 20 0 0,0
24.05.2019 21:00:00 18,0 7,4 16,1 6 3 23 12 NW 1014,1 20 54 0,0
24.05.2019 20:00:00 19,0 7,4 19,0 6 4 24 13 NNW 1013,4 20 24 0,0
24.05.2019 19:00:00 20,1 6,4 21,3 9 5 22 12 NNW 1013,0 20 38 0,0
24.05.2019 18:00:00 21,6 6,7 21,8 9 5 17 9 NNE 1012,9 20 38 0,0
24.05.2019 17:00:00 21,5 5,4 22,0 8 4 21 12 NE 1013,2 19 36 0,0
24.05.2019 16:00:00 21,1 5,4 24,5 8 5 22 12 NW 1013,7 18 55 0,0
24.05.2019 15:00:00 21,6 6,7 22,7 8 5 22 12 NW 1013,7 20 49 0,0
24.05.2019 14:00:00 21,5 7,7 22,0 7 4 19 10 WNW 1014,0 20 32 0,0
24.05.2019 13:00:00 19,7 6,8 23,9 6 4 16 9 NNE 1014,6 20 11 0,0
24.05.2019 12:00:00 19,2 6,6 23,4 8 4 18 10 N 1014,9 20 28 0,0
24.05.2019 11:00:00 19,6 8,6 23,3 5 3 16 9 N 1014,9 20 60 0,0
24.05.2019 10:00:00 17,6 8,2 20,2 8 4 13 7 NW 1015,2 20 54 0,0
24.05.2019 09:00:00 16,7 7,1 18,6 4 2 12 7 NNW 1015,3 20 56 0,0
24.05.2019 08:00:00 15,5 7,0 10,4 2 1 10 6 WNW 1015,4 20 54 0,0
24.05.2019 07:00:00 11,2 6,7 4,2 4 2 9 5 N 1015,8 20 22 0,0
24.05.2019 06:00:00 10,5 6,3 3,6 6 3 8 4 NNE 1015,7 20 0 0,0
24.05.2019 05:00:00 11,1 6,0 4,3 5 3 7 4 NNE 1015,6 20 0 0,0
24.05.2019 04:00:00 12,0 6,5 6,2 4 2 6 4 NNE 1015,5 20 0 0,0
24.05.2019 03:00:00 12,6 6,2 6,5 4 2 9 5 NNE 1015,6 20 0 0,0
24.05.2019 02:00:00 13,4 6,5 8,3 4 2 13 7 NE 1015,9 20 0 0,0
24.05.2019 01:00:00 13,9 6,5 9,1 4 2 11 6 NE 1016,1 20 0 0,0
24.05.2019 00:00:00 14,3 6,6 8,5 4 2 9 5 N 1016,1 20 0 0,0
23.05.2019 23:00:00 15,1 7,1 10,0 4 2 9 5 NW 1016,3 20 0 0,0
23.05.2019 22:00:00 15,6 6,8 10,0 3 2 9 5 NE 1016,0 20 0 0,0
23.05.2019 21:00:00 16,8 7,4 12,3 2 1 5 3 NNE 1015,7 20 24 0,0
23.05.2019 20:00:00 18,8 6,6 19,7 4 2 9 5 NNE 1015,2 20 45 0,0
23.05.2019 19:00:00 20,1 6,1 23,2 3 2 12 7 ENE 1015,1 20 60 0,0
23.05.2019 18:00:00 20,1 6,4 26,0 7 4 16 9 E 1015,3 20 60 0,0
23.05.2019 17:00:00 20,5 7,8 26,0 6 3 15 8 ENE 1015,6 20 56 0,0
23.05.2019 16:00:00 20,7 7,0 27,2 4 2 23 12 NE 1015,9 20 60 0,0
23.05.2019 15:00:00 19,7 5,3 26,8 6 3 17 9 N 1016,6 20 60 0,0
23.05.2019 14:00:00 19,0 5,8 25,8 5 3 21 11 N 1017,1 20 60 0,0
23.05.2019 13:00:00 18,7 6,2 25,3 6 3 19 11 E 1017,7 20 60 0,0
23.05.2019 12:00:00 18,0 6,8 24,3 9 5 21 11 E 1018,3 20 60 0,0
23.05.2019 11:00:00 17,1 5,1 23,1 7 4 16 9 NE 1018,5 20 60 0,0
23.05.2019 10:00:00 15,9 6,9 20,1 10 5 17 9 ESE 1018,8 20 60 0,0
23.05.2019 09:00:00 14,6 5,1 17,0 7 4 14 8 ESE 1019,0 20 60 0,0
23.05.2019 08:00:00 12,9 6,0 11,6 4 2 9 5 ENE 1019,3 20 60 0,0
23.05.2019 07:00:00 10,6 5,4 3,3 8 4 9 5 NNE 1019,4 20 30 0,0
23.05.2019 06:00:00 9,3 4,7 3,1 5 3 9 5 NNE 1019,5 20 0 0,0
23.05.2019 05:00:00 10,0 5,0 3,2 5 3 11 6 NE 1019,5 20 0 0,0
23.05.2019 04:00:00 10,3 5,1 3,4 5 3 11 6 NNE 1019,8 20 0 0,0
23.05.2019 03:00:00 10,3 4,9 3,9 5 3 10 5 N 1020,1 20 0 0,0
23.05.2019 02:00:00 11,2 4,6 5,4 5 3 10 5 N 1020,3 20 0 0,0
23.05.2019 01:00:00 11,9 4,6 6,4 5 3 14 8 NNW 1020,3 20 0 0,0
23.05.2019 00:00:00 12,2 4,4 5,7 5 3 11 6 NW 1020,4 20 0 0,0
22.05.2019 23:00:00 12,1 4,6 4,7 4 2 10 5 NW 1020,4 20 0 0,0
22.05.2019 22:00:00 13,3 4,4 6,2 5 3 10 5 NW 1020,2 20 0 0,0
22.05.2019 21:00:00 14,6 4,6 10,4 5 3 18 10 NNW 1019,5 20 25 0,0
22.05.2019 20:00:00 16,6 3,6 15,9 6 4 16 9 N 1019,0 20 41 0,0
22.05.2019 19:00:00 17,7 3,2 18,3 8 4 24 13 N 1018,7 20 48 0,0
22.05.2019 18:00:00 16,4 3,1 17,3 9 5 18 10 N 1019,3 20 34 0,0
22.05.2019 17:00:00 18,0 4,2 21,0 10 6 23 12 N 1019,0 20 48 0,0
22.05.2019 16:00:00 18,1 4,3 18,9 9 5 21 11 N 1019,0 20 46 0,0
22.05.2019 15:00:00 18,1 6,0 21,2 7 4 24 13 N 1019,0 20 53 0,0
22.05.2019 14:00:00 17,8 5,0 24,1 10 6 27 15 WNW 1019,2 20 60 0,0
22.05.2019 13:00:00 17,1 2,7 23,1 8 4 27 14 NNE 1019,4 20 60 0,0
22.05.2019 12:00:00 16,3 3,7 23,0 10 5 24 13 NNW 1019,7 20 60 0,0
22.05.2019 11:00:00 15,2 4,0 21,6 9 5 23 12 NNW 1019,7 20 60 0,0
22.05.2019 10:00:00 14,3 5,9 19,3 7 4 17 9 NNE 1019,7 20 60 0,0
22.05.2019 09:00:00 12,7 6,1 16,0 8 4 16 9 NNE 1020,1 20 60 0,0
22.05.2019 08:00:00 11,5 7,2 12,1 9 5 17 9 NNE 1019,9 19 60 0,0
22.05.2019 07:00:00 10,5 7,7 6,4 4 2 10 6 NNE 1019,7 15 20 0,0
22.05.2019 06:00:00 8,9 6,2 4,9 6 3 11 6 N 1019,9 20 0 0,0
22.05.2019 05:00:00 9,5 5,7 5,9 6 3 12 7 N 1019,3 20 0 0,0
22.05.2019 04:00:00 10,3 5,5 5,4 8 4 13 7 N 1019,1 20 0 0,0
22.05.2019 03:00:00 10,2 6,0 6,4 4 2 14 8 NNW 1019,0 20 0 0,0
22.05.2019 02:00:00 11,0 6,3 8,8 7 4 16 9 NNW 1018,8 20 0 0,0
22.05.2019 01:00:00 11,2 6,5 8,6 8 4 15 8 NW 1018,9 20 0 0,0
22.05.2019 00:00:00 11,4 6,5 9,4 7 4 15 8 WNW 1018,7 20 0 0,0
21.05.2019 23:00:00 12,3 6,1 10,1 8 4 16 9 NW 1018,3 20 0 0,0
21.05.2019 22:00:00 12,6 6,4 10,3 6 3 15 8 WNW 1018,1 20 0 0,0
21.05.2019 21:00:00 14,3 5,9 12,4 6 4 26 14 NW 1017,1 20 50 0,0
21.05.2019 20:00:00 16,5 5,4 17,0 10 5 28 15 NNW 1016,2 20 60 0,0
21.05.2019 19:00:00 17,6 5,5 18,6 12 7 31 17 NNW 1015,6 20 54 0,0
21.05.2019 18:00:00 17,0 5,9 18,6 11 6 35 19 NNW 1015,5 20 48 0,0
21.05.2019 17:00:00 18,2 6,4 21,0 16 9 37 20 WNW 1015,2 20 53 0,0
21.05.2019 16:00:00 17,9 7,3 20,2 16 9 44 24 NNW 1015,1 20 50 0,0
21.05.2019 15:00:00 17,9 7,0 20,4 16 8 38 20 NW 1015,0 20 56 0,0
21.05.2019 14:00:00 17,0 7,3 22,2 15 8 34 19 NW 1015,1 20 57 0,0
21.05.2019 13:00:00 16,0 6,7 21,4 16 8 35 19 NW 1015,1 20 60 0,0
21.05.2019 12:00:00 15,3 7,8 19,6 14 8 34 18 NW 1015,0 20 60 0,0
21.05.2019 11:00:00 13,6 7,6 16,7 15 8 31 17 NW 1015,0 19 58 0,0
21.05.2019 10:00:00 12,5 8,4 15,6 16 9 33 18 NW 1014,9 15 60 0,0
21.05.2019 09:00:00 11,4 8,6 10,7 15 8 28 15 WNW 1014,6 16 33 0,0
21.05.2019 08:00:00 10,0 8,6 9,8 14 7 24 13 W 1014,5 8 0 0,0
21.05.2019 07:00:00 9,7 8,6 9,6 10 5 26 14 WNW 1014,2 6 0 0,0
21.05.2019 06:00:00 9,7 8,5 9,5 11 6 24 13 WNW 1013,7 7 0 0,0
21.05.2019 05:00:00 9,6 8,5 9,3 12 6 26 14 WNW 1013,5 6 0 0,0
21.05.2019 04:00:00 9,5 8,4 9,4 13 7 31 17 NW 1013,6 4,0 0 0,0
21.05.2019 03:00:00 9,4 8,3 9,3 12 6 32 18 NW 1013,5 3,9 0 0,0
21.05.2019 02:00:00 9,5 8,4 9,5 12 6 33 18 WNW 1013,5 3,1 0 0,0
21.05.2019 01:00:00 10,1 9,0 10,0 13 7 29 15 NW 1013,3 4,4 0 0,0
21.05.2019 00:00:00 10,5 9,4 10,3 11 6 31 17 NW 1013,1 4,0 0 0,0
20.05.2019 23:00:00 10,5 9,6 10,1 15 8 32 17 WNW 1012,7 3,4 0 0,0
20.05.2019 22:00:00 10,2 9,3 9,5 13 7 23 12 WNW 1012,4 2,9 0 0,0
20.05.2019 21:00:00 10,3 9,4 10,1 12 7 28 15 WNW 1011,8 5 0 0,0

tt = Température de l'air
td = dewpoint
tt 5cm = Température de l'air 5cm
ff = Vitesse du vent
fx = gusts
dd = Direction du vent
ppp = reduced air pressure
vv = visibility
sd = Ensoleillement
rr = Quantités de précipitations

stations d'obs. à proximité